Regional Weather Roundup
Issued by NWS

Home | Current Version | Previous Version | Text Only | Print | Product List | Glossary Off
Versions: 1 2 3 4 5 6 7 8 9 10 11 12 13 14 15 16 17 18 19 20 21 22 23 24 25 26 27 28 29 30 31 32 33 34 35 36 37 38 39 40 41 42 43 44 45 46 47 48 49 50

512
ASUS43 KBIS 141510
RWRND

NORTH DAKOTA REGIONAL WEATHER ROUNDUP
NATIONAL WEATHER SERVICE BISMARCK ND
900 AM CST THU DEC 14 2017

NOTE: "FAIR" INDICATES FEW OR NO CLOUDS BELOW 12,000 FEET WITH NO
SIGNIFICANT WEATHER AND/OR OBSTRUCTIONS TO VISIBILITY.


NDZ001>003-009>011-017-141600-
NORTHWEST NORTH DAKOTA

CITY           SKY/WX    TMP DP  RH WIND       PRES   REMARKS
WILLISTON      CLOUDY    31  25  78 N10       30.19S
MINOT          CLOUDY    31  24  75 NW13      30.09R
MINOT AFB      CLOUDY    30  24  78 N10       30.08R
$$

NDZ018>021-031>035-040>046-141600-
SOUTHWEST NORTH DAKOTA

CITY           SKY/WX    TMP DP  RH WIND       PRES   REMARKS
BISMARCK       CLOUDY    33  28  81 N15G28    30.08R
DICKINSON      LGT SNOW  31  27  85 NW18G29   30.11R FOG     WCI  19
GARRISON         N/A     31  23  72 N21G33    30.09R WCI  18
HETTINGER ARPT CLOUDY    31  27  85 NW21G30   30.12R WCI  18
$$

NDZ004>008-012>016-024-026-027-054-141600-
NORTHEAST NORTH DAKOTA

CITY           SKY/WX    TMP DP  RH WIND       PRES   REMARKS
GRAND FORKS    FLURRIES  23  19  85 NW12      30.04R WCI  12
GRND FRKS AFB  FLURRIES  23  19  84 N7        30.04R WCI  15
DEVILS LAKE    CLOUDY    23  21  92 N12       30.05R WCI  12
$$

NDZ022-023-025-028>030-036>039-047>053-141600-
SOUTHEAST NORTH DAKOTA

CITY           SKY/WX    TMP DP  RH WIND       PRES   REMARKS
FARGO          CLOUDY    21  18  88 W5        30.04R WCI  15
JAMESTOWN      CLOUDY    28  26  92 NW6       30.00R
$$





USA.gov is the U.S. government's official web portal to all federal, state and local government web resources and services.